Location: ActonStarParty
(42.4766°N, 71.4538°W)
Time: 03:30:49
(UTC-04:00)

ISS - All Passes

Search period start: 24 October 2017 00:00
Search period end: 03 November 2017 00:00
Orbit: 400 x 408 km, 51.6° (Epoch: 24 October)

Date Brightness Start Highest point End Pass type
(mag) Time Alt. Az. Time Alt. Az. Time Alt. Az.
24 Oct - 07:33:45 10° SE 07:34:25 10° SE 07:35:05 10° ESE daylight
24 Oct - 09:07:08 10° SW 09:10:23 88° SE 09:13:40 10° ENE daylight
24 Oct - 10:44:34 10° WNW 10:47:12 22° NNW 10:49:50 10° NE daylight
24 Oct - 12:22:20 10° NW 12:24:31 17° N 12:26:43 10° NE daylight
24 Oct - 13:58:40 10° NW 14:01:42 34° NNE 14:04:43 10° E daylight
24 Oct - 15:35:09 10° WNW 15:38:10 35° SW 15:41:12 10° SSE daylight
25 Oct - 08:14:58 10° SW 08:18:05 46° SE 08:21:13 10° ENE daylight
25 Oct - 09:51:45 10° W 09:54:39 29° NNW 09:57:34 10° NE daylight
25 Oct - 11:29:43 10° NW 11:31:53 16° N 11:34:03 10° NE daylight
25 Oct - 13:06:26 10° NW 13:09:10 24° NNE 13:11:56 10° ENE daylight
25 Oct - 14:42:38 10° WNW 14:45:53 69° SW 14:49:08 10° SE daylight
26 Oct - 07:23:09 10° SSW 07:25:51 24° SE 07:28:32 10° E daylight
26 Oct - 08:59:02 10° WSW 09:02:09 43° NNW 09:05:18 10° NE daylight
26 Oct - 10:36:57 10° NW 10:39:14 17° N 10:41:32 10° NE daylight
26 Oct - 12:14:07 10° NW 12:16:35 19° NNE 12:19:03 10° ENE daylight
26 Oct - 13:50:16 10° NW 13:53:31 65° NNE 13:56:46 10° ESE daylight
26 Oct - 15:27:37 10° W 15:29:40 16° SW 15:31:42 10° S daylight
27 Oct - 06:32:03 10° SSE 06:33:40 13° SE 06:35:17 10° E visible
27 Oct - 08:06:29 10° WSW 08:09:43 76° NW 08:12:59 10° NE daylight
27 Oct - 09:44:04 10° WNW 09:46:36 20° NNW 09:49:08 10° NE daylight
27 Oct - 11:21:42 10° NW 11:23:56 17° N 11:26:11 10° NE daylight
27 Oct - 12:57:58 10° NW 13:01:03 39° NNE 13:04:09 10° E daylight
27 Oct - 14:34:34 10° WNW 14:37:27 28° SW 14:40:19 10° SSE daylight
28 Oct - 07:14:09 10° SW 07:17:21 58° SE 07:20:34 10° ENE daylight
28 Oct - 08:51:11 10° W 08:54:00 26° NNW 08:56:49 10° NE daylight
28 Oct - 10:29:07 10° NW 10:31:16 16° N 10:33:25 10° NE daylight
28 Oct - 12:05:41 10° NW 12:08:31 27° NNE 12:11:22 10° E daylight
28 Oct - 13:41:58 10° WNW 13:45:10 55° SW 13:48:21 10° SE daylight
29 Oct - 06:22:09 10° SSW 06:25:03 30° SE 06:27:56 10° ENE visible
29 Oct - 07:58:23 10° W 08:01:27 37° NNW 08:04:31 10° NE daylight
29 Oct - 09:36:21 10° NW 09:38:34 17° N 09:40:48 10° NE daylight
29 Oct - 11:13:21 10° NW 11:15:55 21° NNE 11:18:28 10° ENE daylight
29 Oct - 12:49:30 10° NW 12:52:46 79° NNE 12:56:02 10° ESE daylight
29 Oct - 14:27:19 10° WSW 14:28:49 13° SW 14:30:18 10° SSW daylight
30 Oct - 05:30:41 10° S 05:32:48 16° SE 05:34:54 10° E visible
30 Oct - 07:05:43 10° WSW 07:08:57 62° NNW 07:12:11 10° NE daylight
30 Oct - 08:43:28 10° WNW 08:45:54 19° NNW 08:48:20 10° NE daylight
30 Oct - 10:20:56 10° NW 10:23:15 18° N 10:25:32 10° NE daylight
30 Oct - 11:57:09 10° NW 12:00:18 45° NNE 12:03:27 10° ESE daylight
30 Oct - 13:33:56 10° W 13:36:36 23° SW 13:39:16 10° S daylight
31 Oct - 06:13:16 10° SW 06:16:31 72° SE 06:19:46 10° ENE visible
31 Oct - 07:50:31 10° WNW 07:53:15 24° NNW 07:55:58 10° NE daylight
31 Oct - 09:28:22 10° NW 09:30:32 16° N 09:32:41 10° NE daylight
31 Oct - 11:04:49 10° NW 11:07:45 30° NNE 11:10:41 10° E daylight
31 Oct - 12:41:10 10° WNW 12:44:18 44° SW 12:47:24 10° SSE daylight
01 Nov - 05:21:07 10° SSW 05:24:08 37° SE 05:27:11 10° ENE visible
01 Nov - 06:57:38 10° W 07:00:38 33° NNW 07:03:37 10° NE daylight
01 Nov - 08:35:37 10° NW 08:37:48 16° N 08:39:59 10° NE daylight
01 Nov - 10:12:28 10° NW 10:15:07 22° NNE 10:17:46 10° ENE daylight
01 Nov - 11:48:38 10° WNW 11:51:54 85° SSW 11:55:09 10° SE daylight
01 Nov - 13:27:43 10° SW 13:27:51 10° SW 13:28:00 10° SW daylight
02 Nov - 04:29:23 10° S 04:31:50 20° SE 04:34:18 10° E visible
02 Nov - 06:04:53 10° WSW 06:08:04 51° NNW 06:11:16 10° NE visible
02 Nov - 07:42:43 10° WNW 07:45:05 18° N 07:47:26 10° NE daylight
02 Nov - 09:20:03 10° NW 09:22:25 18° N 09:24:48 10° ENE daylight
02 Nov - 10:56:12 10° NW 10:59:25 54° NNE 11:02:37 10° ESE daylight
02 Nov - 12:33:15 10° W 12:35:38 19° SW 12:38:01 10° S daylight
